Retour au catalogue

NIMBUS 2 DEB

LostSSO
NORAD 42438·DEBRIS·🇺🇸 United States

Lancé May 15, 1966 depuis Vandenberg Space Force Base

Loading…

Prochains Passages (prochaines 24 heures)

TLE

PériméSource: Space-Track

Époque: Oct 22, 2016, 11:39 UTC

1 42438U 66040BR  16296.48595034  .00001068  00000-0  21961-2 0  9995
2 42438 100.3461  33.0808 0048242 287.6607  71.9253 13.34986491 51265

Suivez NIMBUS 2 DEB en temps réel avec AllMySat

Download on the App Store